Airfield :
LOGIN :

Register | Disclaimer

   EN    FR    IT 

 










Legend :    VFR   Marginal VFR   IFR   Intensive IFR   Very Intensive IFR
Visi :
Ceiling :
>= 8 km
>= 3000ft
5 to 8 km
1000 to 3000 ft
1500m to 5 km
500 to 1000 ft
800 to 1500m
200 to 500 ft
< 800m
< 200 ft
Symbols :   Thunderstorms  Fog  Heavy snow  Heavy precipitations  Wind > 20 kt
SIGMETs :     Misc.  Thunderstorms  Icing  Turbulence  Mountain Waves  Volcanic Ashes







- Airport Elevation : 856 ft
- IATA code : VGO


LEVX - Vigo Peinador

CURRENT METAR :
  • 260900Z 05005KT 010V110 CAVOK 18/11 Q1022 NOSIG

EXPIRED METARs :
  • 260830Z 06004KT 360V100 CAVOK 17/12 Q1022 NOSIG
  • 260800Z VRB02KT CAVOK 16/11 Q1022 NOSIG
  • 260730Z 05003KT 010V110 CAVOK 15/11 Q1022 NOSIG
  • 260700Z VRB01KT CAVOK 15/11 Q1022 NOSIG
  • 260630Z VRB01KT CAVOK 13/11 Q1022 NOSIG

TAF TAF LEVX
Valid from the 26 at 06:00 until the 27 at 06:00 UTC


260500Z 2606/2706 03008KT CAVOK TX24/2614Z TN10/2606Z
TEMPO 2612/2619 33010KT
No reported NOTAMs for that airfield.



MET'MAP, your aeronautical weather chart ! - Copyright ORBIFLY December 2007 - Disclaimer

ORBIFLY MET'MAP TEAM :

Programming & Development : Alexandra Zaïnal
Concept & Development : Baudouin d'Aumeries
Co-Development & Prog : Marc-Olivier Méhu
Technical & hardware support : Manuel Goepfert

Contact : metmap@orbifly.com




SOURCES & CREDITS :

   NOAA